CW9461 Weather Reports


Display with metric or nautical units.
time (UTC)temp
F
wind
direction
speed
MPH
gust
MPH
rain 1hr
in
rain 24hr
in
rain mn
in
humidity
%
barometer
mb
20260904073104 61 337 0.0 0.0 0.00 0.17 0.00 95 1002.4
20260904072103 61 337 0.0 0.0 0.00 0.17 0.00 94 1002.7
20260904071604 61 337 0.0 0.0 0.00 0.17 0.00 94 1002.4
20260904071105 61 337 0.0 0.0 0.00 0.17 0.00 94 1002.4
20260904070603 61 337 0.0 0.0 0.00 0.17 0.00 94 1002.4
20260904070104 61 337 0.0 0.0 0.00 0.17 0.00 94 1002.4
20260904065604 61 67 0.0 0.0 0.00 0.17 0.17 94 1002.4
20260904065104 61 67 0.0 0.0 0.00 0.17 0.17 94 1002.4
20260904064603 61 67 0.0 1.0 0.00 0.17 0.17 94 1002.4
20260904064103 61 67 0.0 2.0 0.00 0.17 0.17 94 1002.4
20260904063604 61 67 1.0 1.0 0.00 0.17 0.17 95 1002.4
20260904063103 61 67 0.0 1.0 0.00 0.17 0.17 95 1002.4
20260904061606 61 216 0.0 1.0 0.00 0.17 0.17 95 1002.4
20260904061106 61 20 1.0 5.0 0.00 0.17 0.17 95 1002.4
20260904060605 61 247 0.0 0.0 0.00 0.17 0.17 95 1002.4
20260904060105 61 271 0.0 0.0 0.00 0.17 0.17 95 1002.4
20260904055605 61 292 0.0 0.0 0.00 0.17 0.17 95 1002.4
20260904055106 61 292 0.0 0.0 0.00 0.17 0.17 95 1002.4
20260904054606 61 270 0.0 3.0 0.00 0.17 0.17 95 1002.4
20260904054105 61 256 1.0 3.0 0.01 0.17 0.17 95 1002.4
20260904053606 61 250 2.0 5.0 0.02 0.17 0.17 95 1002.4
20260904053106 61 252 3.0 8.0 0.02 0.17 0.17 95 1002.4
20260904052606 61 255 2.0 8.0 0.03 0.17 0.17 95 1002.7
20260904052106 61 250 3.0 7.0 0.04 0.17 0.17 95 1002.7
20260904051605 61 241 2.0 6.0 0.05 0.17 0.17 95 1002.7
20260904051105 61 292 1.0 2.0 0.05 0.17 0.17 95 1002.7
20260904050606 60 315 1.0 5.0 0.06 0.17 0.17 95 1002.7
20260904050105 60 280 0.0 8.0 0.07 0.17 0.17 95 1002.7
20260904045105 60 211 2.0 5.0 0.09 0.17 0.17 95 1003.0
20260904044605 60 230 2.0 5.0 0.10 0.17 0.17 95 1003.0
20260904044105 60 241 3.0 10.0 0.09 0.16 0.16 95 1003.0
20260904043606 61 218 1.0 6.0 0.08 0.15 0.15 95 1003.0
20260904042605 61 258 1.0 3.0 0.07 0.14 0.14 95 1003.0
20260904042105 61 277 2.0 8.0 0.06 0.13 0.13 95 1002.7
20260904041605 61 226 2.0 6.0 0.05 0.12 0.12 94 1002.7
20260904041105 61 210 1.0 2.0 0.05 0.12 0.12 94 1002.7
20260904040606 61 249 1.0 5.0 0.05 0.11 0.11 94 1002.7
20260904040106 61 259 2.0 5.0 0.04 0.10 0.10 94 1002.7
20260904035605 61 237 1.0 5.0 0.03 0.09 0.09 94 1002.7
20260904035105 61 247 2.0 5.0 0.03 0.08 0.08 94 1002.7
20260904034605 61 235 2.0 5.0 0.03 0.07 0.07 94 1002.7
20260904034105 61 258 1.0 5.0 0.04 0.07 0.07 94 1002.7
20260904033605 61 260 1.0 5.0 0.04 0.07 0.07 94 1002.7
20260904033105 61 271 1.0 3.0 0.05 0.07 0.07 94 1002.4
20260904032106 61 231 2.0 9.0 0.07 0.07 0.07 93 1002.4
20260904031606 61 257 3.0 6.0 0.07 0.07 0.07 93 1002.4
20260904031105 61 243 3.0 7.0 0.07 0.07 0.07 93 1002.4
20260904030605 61 257 3.0 6.0 0.06 0.06 0.06 93 1002.4
20260904030105 61 254 2.0 5.0 0.06 0.06 0.06 92 1002.4
20260904025605 61 241 3.0 7.0 0.06 0.06 0.06 92 1002.4
20260904025106 61 249 3.0 7.0 0.05 0.05 0.05 91 1002.4
20260904024107 62 266 2.0 5.0 0.03 0.03 0.03 90 1002.4
20260904023605 62 268 3.0 9.0 0.03 0.03 0.03 90 1002.7
20260904023105 62 252 2.0 6.0 0.02 0.02 0.02 89 1002.4
20260904022604 63 264 2.0 6.0 0.01 0.01 0.01 88 1002.4
20260904022105 63 280 2.0 5.0 0.00 0.00 0.00 87 1002.4
20260904021606 64 273 3.0 6.0 0.00 0.00 0.00 86 1002.4
20260904020605 65 284 2.0 5.0 0.00 0.00 0.00 84 1002.7
20260904020107 66 290 2.0 3.0 0.00 0.00 0.00 83 1002.7
20260904015107 67 263 2.0 5.0 0.00 0.00 0.00 82 1002.7
20260904014605 67 225 0.0 2.0 0.00 0.00 0.00 81 1002.4
20260904014106 67 255 2.0 6.0 0.00 0.00 0.00 80 1002.4
20260904013605 68 217 1.0 5.0 0.00 0.00 0.00 79 1002.4
20260904012605 68 246 2.0 8.0 0.00 0.00 0.00 78 1002.4
20260904012104 68 234 2.0 7.0 0.00 0.00 0.00 77 1002.4
20260904011605 68 247 2.0 5.0 0.00 0.00 0.00 76 1002.7
20260904011105 68 236 3.0 13.0 0.00 0.00 0.00 76 1002.4
20260904010606 68 229 3.0 7.0 0.00 0.00 0.00 76 1002.4
20260904010107 68 247 2.0 6.0 0.00 0.00 0.00 75 1002.7
20260904005605 69 221 3.0 6.0 0.00 0.00 0.00 74 1002.7
20260904005106 69 250 3.0 8.0 0.00 0.00 0.00 73 1002.4
20260904004605 69 241 2.0 7.0 0.00 0.00 0.00 73 1002.4
20260904004105 69 241 3.0 7.0 0.00 0.00 0.00 73 1002.4
20260904002606 69 152 2.0 6.0 0.00 0.00 0.00 71 1002.4
20260904002105 69 244 3.0 7.0 0.00 0.00 0.00 71 1002.4
20260904001105 70 273 2.0 7.0 0.00 0.00 0.00 71 1002.4
20260904000105 70 225 3.0 7.0 0.00 0.00 0.00 71 1002.7
20260903235605 70 226 3.0 10.0 0.00 0.00 0.00 70 1002.4
20260903235106 70 227 2.0 6.0 0.00 0.00 0.00 70 1002.4
20260903234604 70 207 3.0 8.0 0.00 0.00 0.00 69 1002.4
20260903234105 70 246 3.0 8.0 0.00 0.00 0.00 68 1002.7
20260903233605 71 240 3.0 7.0 0.00 0.00 0.00 67 1002.7
20260903233105 71 263 3.0 8.0 0.00 0.00 0.00 67 1002.7
20260903232605 71 247 2.0 6.0 0.00 0.00 0.00 67 1002.4
20260903232106 71 241 2.0 7.0 0.00 0.00 0.00 66 1002.7
20260903231606 71 241 4.0 8.0 0.00 0.00 0.00 65 1002.7
20260903231105 72 242 5.0 9.0 0.00 0.00 0.00 64 1002.7
20260903230606 72 232 3.0 8.0 0.00 0.00 0.00 64 1002.7
20260903230105 72 225 3.0 8.0 0.00 0.00 0.00 64 1003.0
20260903225605 73 254 3.0 7.0 0.00 0.00 0.00 63 1003.0
20260903224605 73 235 5.0 9.0 0.00 0.00 0.00 62 1003.0
20260903224106 74 232 3.0 7.0 0.00 0.00 0.00 62 1003.0
20260903223605 74 153 2.0 8.0 0.00 0.00 0.00 62 1003.0
20260903223105 74 230 3.0 8.0 0.00 0.00 0.00 61 1003.0
20260903222605 75 239 3.0 9.0 0.00 0.00 0.00 60 1003.0
20260903222104 75 236 3.0 8.0 0.00 0.00 0.00 61 1003.0
20260903221605 74 214 5.0 8.0 0.00 0.00 0.00 61 1003.0
20260903221105 74 227 5.0 14.0 0.00 0.00 0.00 61 1003.4
20260903220605 74 238 5.0 9.0 0.00 0.00 0.00 61 1003.3
20260903220104 74 247 5.0 9.0 0.00 0.00 0.00 62 1003.3
20260903214605 74 211 3.0 8.0 0.00 0.00 0.00 63 1003.4
20260903213604 74 230 3.0 8.0 0.00 0.00 0.00 63 1003.4
20260903213104 74 192 2.0 8.0 0.00 0.00 0.00 63 1003.4
20260903212605 74 216 3.0 8.0 0.00 0.00 0.00 63 1003.4
20260903212106 74 186 1.0 5.0 0.00 0.00 0.00 63 1003.7
20260903211606 73 230 2.0 7.0 0.00 0.00 0.00 64 1003.7
20260903211105 73 210 2.0 7.0 0.00 0.00 0.00 64 1003.7
20260903210105 73 227 5.0 10.0 0.00 0.00 0.00 65 1003.7
20260903205606 72 227 4.0 10.0 0.00 0.00 0.00 65 1004.0
20260903204605 72 236 3.0 6.0 0.00 0.00 0.00 66 1004.0
20260903204105 72 164 2.0 10.0 0.00 0.00 0.00 66 1003.7
20260903203606 71 246 3.0 7.0 0.00 0.00 0.00 66 1004.1
20260903203105 72 219 3.0 8.0 0.00 0.00 0.00 66 1003.8
20260903202605 72 232 4.0 8.0 0.00 0.00 0.00 66 1004.1
20260903202104 72 226 1.0 6.0 0.00 0.00 0.00 65 1004.1
20260903201605 72 257 2.0 9.0 0.00 0.00 0.00 65 1004.1
20260903201105 72 179 2.0 5.0 0.00 0.00 0.00 64 1004.1
20260903200605 72 176 2.0 7.0 0.00 0.00 0.00 64 1004.1
20260903200105 72 147 2.0 9.0 0.00 0.00 0.00 63 1004.1
20260903195604 72 171 3.0 6.0 0.00 0.00 0.00 63 1004.4
20260903195104 72 218 3.0 8.0 0.00 0.00 0.00 63 1004.1
20260903194605 72 185 1.0 7.0 0.00 0.00 0.00 63 1004.4
20260903193605 73 145 3.0 6.0 0.00 0.00 0.00 61 1004.4
20260903193106 73 143 1.0 3.0 0.00 0.00 0.00 61 1004.4
20260903192605 73 157 2.0 5.0 0.00 0.00 0.00 61 1004.4
20260903192105 73 150 2.0 6.0 0.00 0.00 0.00 60 1004.7
20260903191604 73 219 3.0 6.0 0.00 0.00 0.00 60 1004.7
20260903191104 73 335 1.0 9.0 0.00 0.00 0.00 60 1004.7
20260903190605 74 184 3.0 7.0 0.00 0.00 0.00 60 1004.4
20260903190105 74 215 2.0 14.0 0.00 0.00 0.00 59 1004.7
20260903185604 75 241 4.0 10.0 0.00 0.00 0.00 57 1004.7
20260903185104 75 160 2.0 7.0 0.00 0.00 0.00 57 1004.7
20260903184605 76 196 2.0 6.0 0.00 0.00 0.00 57 1004.7
20260903184105 76 201 3.0 7.0 0.00 0.00 0.00 57 1004.7
20260903182605 74 156 3.0 8.0 0.00 0.00 0.00 59 1004.7
20260903182104 73 163 2.0 5.0 0.00 0.00 0.00 61 1004.7
20260903181606 72 247 3.0 7.0 0.00 0.00 0.00 62 1004.7
20260903181105 71 288 2.0 8.0 0.00 0.00 0.00 63 1004.7
20260903180105 71 197 2.0 8.0 0.00 0.00 0.00 63 1004.7
20260903175604 70 129 3.0 8.0 0.00 0.00 0.00 63 1004.7
20260903175105 70 137 3.0 10.0 0.00 0.00 0.00 63 1004.7
20260903174605 71 109 2.0 5.0 0.00 0.00 0.00 63 1004.7
20260903174105 71 169 2.0 12.0 0.00 0.00 0.00 62 1004.7
20260903173604 71 157 2.0 7.0 0.00 0.00 0.00 63 1004.7
20260903172605 71 199 3.0 9.0 0.00 0.00 0.00 63 1005.0
20260903172105 71 148 3.0 8.0 0.00 0.00 0.00 64 1004.8
20260903171605 70 123 3.0 9.0 0.00 0.00 0.00 65 1005.1
20260903171104 70 125 3.0 9.0 0.00 0.00 0.00 66 1005.1
20260903170605 69 134 3.0 12.0 0.00 0.00 0.00 67 1005.1
20260903170105 69 160 2.0 6.0 0.00 0.00 0.00 68 1005.1
20260903165104 68 151 2.0 7.0 0.00 0.00 0.00 70 1005.1
20260903164105 67 147 1.0 7.0 0.00 0.00 0.00 71 1005.1
20260903163104 66 210 1.0 3.0 0.00 0.00 0.00 73 1005.4
20260903162105 66 153 3.0 9.0 0.00 0.00 0.00 73 1005.4
20260903161606 66 143 3.0 8.0 0.00 0.00 0.00 73 1005.4
20260903161104 66 170 2.0 6.0 0.00 0.00 0.00 74 1005.4
20260903160604 66 137 1.0 5.0 0.00 0.00 0.00 74 1005.8
20260903160104 65 209 2.0 5.0 0.00 0.00 0.00 75 1005.7
20260903155604 65 192 1.0 3.0 0.00 0.00 0.00 75 1005.7
20260903154604 65 140 2.0 6.0 0.00 0.00 0.00 76 1005.4
20260903154104 65 130 2.0 6.0 0.00 0.00 0.00 76 1005.8
20260903153605 64 157 1.0 8.0 0.00 0.00 0.00 76 1005.4
20260903152604 64 150 2.0 6.0 0.00 0.00 0.00 77 1005.4
20260903152104 64 125 3.0 6.0 0.00 0.00 0.00 78 1005.4
20260903151604 64 142 2.0 6.0 0.00 0.00 0.00 78 1005.7
20260903151104 64 122 2.0 6.0 0.00 0.00 0.00 78 1005.7
20260903150604 64 124 2.0 6.0 0.00 0.00 0.00 79 1005.8
20260903145104 63 145 3.0 6.0 0.00 0.00 0.00 80 1005.7
20260903144605 63 132 2.0 6.0 0.00 0.00 0.00 81 1005.4
20260903144104 62 155 2.0 6.0 0.00 0.00 0.00 81 1005.4
20260903143604 62 130 2.0 5.0 0.00 0.00 0.00 82 1005.4
20260903143104 62 138 2.0 6.0 0.00 0.00 0.00 82 1005.4
20260903142604 62 133 2.0 3.0 0.00 0.00 0.00 82 1005.4
20260903142105 62 145 2.0 5.0 0.00 0.00 0.00 82 1005.5
20260903141605 62 128 2.0 5.0 0.00 0.00 0.00 83 1005.4
20260903141104 62 112 2.0 5.0 0.00 0.00 0.00 83 1005.4
20260903140604 62 136 2.0 3.0 0.00 0.00 0.00 83 1005.4
20260903140104 62 127 1.0 5.0 0.00 0.00 0.00 83 1005.4
20260903135604 62 138 2.0 5.0 0.00 0.00 0.00 83 1005.4
20260903135104 61 112 2.0 6.0 0.00 0.00 0.00 83 1005.4
20260903134604 61 131 2.0 5.0 0.00 0.00 0.00 84 1005.4
20260903134104 61 143 2.0 5.0 0.00 0.00 0.00 84 1005.4
20260903133104 62 134 2.0 3.0 0.00 0.00 0.00 84 1005.4
20260903132604 62 135 2.0 6.0 0.00 0.00 0.00 84 1005.4
20260903132104 62 144 2.0 2.0 0.00 0.00 0.00 83 1005.4
20260903131604 62 125 2.0 3.0 0.00 0.00 0.00 83 1005.1
20260903130604 62 156 2.0 3.0 0.00 0.00 0.00 83 1005.2
20260903125604 62 157 2.0 3.0 0.00 0.00 0.00 82 1005.3
20260903125104 62 138 3.0 7.0 0.00 0.00 0.00 82 1005.4
20260903124604 62 130 2.0 8.0 0.00 0.00 0.00 82 1005.4
20260903124103 62 135 1.0 5.0 0.00 0.00 0.00 82 1005.4
20260903123604 62 145 1.0 3.0 0.00 0.00 0.00 82 1005.4
20260903123104 62 129 2.0 6.0 0.00 0.00 0.00 82 1005.7
20260903122603 62 157 1.0 3.0 0.00 0.00 0.00 82 1005.8
20260903121604 62 159 1.0 3.0 0.00 0.00 0.00 82 1005.4
20260903121104 62 158 2.0 5.0 0.00 0.00 0.00 82 1005.8
20260903120604 62 135 1.0 3.0 0.00 0.00 0.00 82 1005.8
20260903120104 62 157 1.0 3.0 0.00 0.00 0.00 82 1005.8
20260903115605 62 135 2.0 3.0 0.00 0.00 0.00 82 1005.8
20260903115104 62 135 1.0 3.0 0.00 0.00 0.00 82 1005.8
20260903114604 62 114 1.0 2.0 0.00 0.00 0.00 82 1005.8
20260903114104 61 135 1.0 3.0 0.00 0.00 0.00 83 1005.8
20260903113604 61 135 1.0 3.0 0.00 0.00 0.00 83 1005.8
20260903113104 61 135 1.0 3.0 0.00 0.00 0.00 83 1006.1
20260903112604 61 135 1.0 2.0 0.00 0.00 0.00 84 1006.1
20260903112104 61 126 1.0 2.0 0.00 0.00 0.00 84 1006.1
20260903111603 61 112 1.0 2.0 0.00 0.00 0.00 84 1006.3
20260903110105 61 135 0.0 2.0 0.00 0.00 0.00 84 1006.2
20260903105604 60 135 1.0 3.0 0.00 0.00 0.00 85 1006.4
20260903105103 60 135 0.0 2.0 0.00 0.00 0.00 85 1006.4
20260903104604 60 135 1.0 2.0 0.00 0.00 0.00 85 1006.4
20260903104104 60 135 1.0 2.0 0.00 0.00 0.00 85 1006.4
20260903103604 60 135 1.0 2.0 0.00 0.00 0.00 86 1006.4
20260903102604 60 109 1.0 3.0 0.00 0.00 0.00 86 1006.4
20260903101605 60 135 1.0 2.0 0.00 0.00 0.00 87 1006.4
20260903101104 60 135 0.0 2.0 0.00 0.00 0.00 87 1006.4
20260903100603 59 137 0.0 2.0 0.00 0.00 0.00 87 1006.4
20260903100104 59 135 1.0 2.0 0.00 0.00 0.00 87 1006.5
20260903095104 59 90 0.0 2.0 0.00 0.00 0.00 87 1006.7
20260903094604 59 135 1.0 2.0 0.00 0.00 0.00 87 1006.7
20260903093604 59 135 0.0 2.0 0.00 0.00 0.00 88 1006.5
20260903092604 59 157 0.0 1.0 0.00 0.00 0.00 88 1006.8
20260903091604 59 157 0.0 0.0 0.00 0.00 0.00 89 1006.8
20260903091104 59 157 0.0 1.0 0.00 0.00 0.00 89 1006.8
20260903090604 59 157 0.0 1.0 0.00 0.00 0.00 89 1006.8
20260903090104 59 90 0.0 0.0 0.00 0.00 0.00 89 1006.8
20260903085603 59 90 0.0 0.0 0.00 0.00 0.00 89 1006.8
20260903085104 59 90 0.0 0.0 0.00 0.00 0.00 89 1007.0
20260903084604 59 90 0.0 1.0 0.00 0.00 0.00 89 1006.8
20260903084104 59 109 1.0 1.0 0.00 0.00 0.00 89 1006.8
20260903082104 59 109 1.0 2.0 0.00 0.00 0.00 89 1006.8
20260903081604 59 122 0.0 2.0 0.00 0.00 0.00 88 1006.8
20260903081104 59 135 0.0 0.0 0.00 0.00 0.00 88 1006.8
20260903080604 59 244 0.0 0.0 0.00 0.00 0.00 88 1006.8
20260903080105 59 247 0.0 2.0 0.00 0.00 0.00 88 1006.8
20260903075104 59 157 0.0 0.0 0.00 0.00 0.00 88 1006.8
20260903074604 59 157 0.0 1.0 0.00 0.00 0.00 88 1006.8
20260903074103 59 79 0.0 5.0 0.00 0.00 0.00 88 1006.8